Main page
METAR-TAF:

METAR-TAF

Airports :

Agri-Science Center

Chillicothe, Missouri, United States

latitude: 39-49N, longitude: 093-35W, elevation: 768 ft

Current weather observation

The report was made 20 minutes ago, at 12:51 UTC
Calm wind
Temperature 63°F
Humidity 72%
Pressure 29.92 in. Hg

METAR: KCDJ 231251Z AUTO 00000KT 17/12 A2992 RMK AO1 SLP123 T01670122

Time: 08:11 (13:11 UTC)


TAF: missing

Weather observations and forecasts of more than 4000 airports (METAR and TAF reports).

The available stations are represented by yellow and red dots on the map.

Hover mouse over dot to see the name of the station.

Then click to see weather observations and forecasts.

To change the map : click on the green buttons with a black cross to zoom in, on the green button with a dash to zoom out, or on the green arrows for adjacent maps.


METAR-TAF: